Prescott, AZ

3:33 PM MST on February 07, 2016 (GMT -0700)
Love

Weather History for KPRC - October, 2010

Change the Weather History Date:

Tuesday, October 5, 2010

  Actual Average Record
Temperature  
Mean Temperature 60 °F 60 °F  
Max Temperature 66 °F 75 °F 91 °F (1979)
Min Temperature 53 °F 46 °F 27 °F (1969)
Degree Days  
Heating Degree Days 6    
Month to date heating degree days  
Since 1 July heating degree days  
Cooling Degree Days 0    
Month to date cooling degree days  
Year to date cooling degree days  
Growing Degree Days 10 (Base 50)    
Moisture  
Dew Point 51 °F    
Average Humidity 80    
Maximum Humidity 90    
Minimum Humidity 56    
Precipitation  
Precipitation 0.31 in 0.04 in 0.55 in (1983)
Month to date precipitation 0.18  
Year to date precipitation 11.35  
Sea Level Pressure  
Sea Level Pressure 29.95 in    
Wind  
Wind Speed 12 mph (SE)    
Max Wind Speed 22 mph    
Max Gust Speed 31 mph    
Visibility 9 miles    
Events Rain , Thunderstorm    
T = Trace of Precipitation, MM = Missing Value Source: NWS Daily Summary

Daily Weather History Graph

Daily Weather History Graph

Search for Another Location

Airport or City:

Trip Planner

Search our weather history database for the weather conditions in past years. The results will help you decide how hot, cold, wet, or windy it might be!

Date:

Astronomy

Oct. 05, 2010 Rise Set
Actual Time 6:27 AM MST 6:08 PM MST
Civil Twilight 6:02 AM MST 6:33 PM MST
Nautical Twilight 5:33 AM MST 7:02 PM MST
Astronomical Twilight 5:03 AM MST 7:31 PM MST
Moon 3:59 AM MST (10/5) 4:37 PM MST (10/5)
Length of Visible Light 12h 31m
Length of Day
11h 40m
Waning Crescent, 6% of the Moon is Illuminated
Oct 5
Waning Crescent
Oct 7
New
Oct 14
First Quarter
Oct 22
Full
Oct 30
Last Quarter

Hourly Weather History & Observations

Time (MST) Temp. Dew Point Humidity Pressure Visibility Wind Dir Wind Speed Gust Speed Precip Events Conditions
12:53 AM 55.0 °F 48.9 °F 80% 29.84 in 10.0 mi SSE 11.5 mph - N/A   Clear
1:53 AM 57.9 °F 48.9 °F 72% 29.83 in 10.0 mi SE 13.8 mph - N/A   Clear
2:33 AM 57.2 °F 48.2 °F 72% 30.02 in 10.0 mi SSE 5.8 mph - N/A Thunderstorm Scattered Clouds
2:53 AM 57.9 °F 48.9 °F 72% 29.82 in 10.0 mi SE 6.9 mph - N/A Thunderstorm Thunderstorm
3:53 AM 57.9 °F 51.1 °F 78% 29.81 in 10.0 mi SE 6.9 mph 17.3 mph 0.01 in Rain Light Rain
4:08 AM 57.2 °F 51.8 °F 82% 30.02 in 10.0 mi SE 11.5 mph - 0.00 in Thunderstorm Overcast
4:53 AM 57.0 °F 51.1 °F 81% 29.88 in 10.0 mi SE 6.9 mph - 0.00 in Thunderstorm Thunderstorm
5:01 AM 57.2 °F 51.8 °F 82% 30.04 in 10.0 mi SSE 8.1 mph - N/A   Overcast
5:53 AM 57.0 °F 52.0 °F 83% 29.88 in 10.0 mi SE 13.8 mph - N/A   Overcast
6:25 AM 57.2 °F 53.6 °F 88% 30.06 in 10.0 mi South 11.5 mph - 0.00 in Rain , Thunderstorm Light Thunderstorms and Rain
6:53 AM 55.0 °F 48.0 °F 77% 29.93 in 8.0 mi South 8.1 mph 18.4 mph 0.03 in Rain , Thunderstorm Light Thunderstorms and Rain
7:25 AM 53.6 °F 48.2 °F 82% 30.07 in 10.0 mi SSE 8.1 mph - 0.12 in   Mostly Cloudy
7:53 AM 57.9 °F 52.0 °F 81% 29.92 in 10.0 mi SSE 12.7 mph - 0.12 in   Mostly Cloudy
8:53 AM 59.0 °F 54.0 °F 83% 29.94 in 10.0 mi SE 19.6 mph 24.2 mph 0.01 in   Mostly Cloudy
9:53 AM 61.0 °F 54.0 °F 78% 29.94 in 10.0 mi SE 17.3 mph 23.0 mph N/A   Mostly Cloudy
10:53 AM 62.1 °F 53.1 °F 72% 29.93 in 10.0 mi ESE 13.8 mph 25.3 mph N/A   Mostly Cloudy
11:53 AM 66.0 °F 50.0 °F 56% 29.91 in 10.0 mi SSE 21.9 mph 29.9 mph 0.00 in   Mostly Cloudy
12:53 PM 62.1 °F 52.0 °F 70% 29.89 in 10.0 mi SSE 20.7 mph 25.3 mph 0.00 in Rain Light Rain
1:44 PM 60.8 °F 55.4 °F 82% 30.04 in 4.0 mi ESE 19.6 mph 29.9 mph 0.00 in Rain , Thunderstorm Light Thunderstorms and Rain
1:53 PM 57.9 °F 54.0 °F 87% 29.90 in 4.0 mi SE 17.3 mph 31.1 mph 0.04 in Rain , Thunderstorm Thunderstorms and Rain
2:53 PM 60.1 °F 55.0 °F 83% 29.86 in 10.0 mi ESE 11.5 mph 21.9 mph 0.04 in   Scattered Clouds
3:53 PM 59.0 °F 52.0 °F 78% 29.88 in 10.0 mi ESE 11.5 mph 20.7 mph N/A   Overcast
4:53 PM 61.0 °F 51.1 °F 70% 29.87 in 10.0 mi SE 16.1 mph 20.7 mph N/A   Mostly Cloudy
5:53 PM 53.6 °F 48.2 °F 82% 29.90 in 10.0 mi SE 16.1 mph 25.3 mph N/A   Overcast
6:40 PM 55.4 °F 51.8 °F 88% 30.07 in 9.0 mi SE 16.1 mph 28.8 mph 0.00 in Rain , Thunderstorm Thunderstorms and Rain
6:53 PM 55.0 °F 51.1 °F 86% 29.93 in 5.0 mi SE 19.6 mph 26.5 mph 0.05 in Rain , Thunderstorm Thunderstorms and Rain
7:53 PM 54.0 °F 51.1 °F 90% 29.95 in 10.0 mi ESE 10.4 mph - 0.00 in   Partly Cloudy
8:53 PM 53.1 °F 50.0 °F 89% 29.97 in 10.0 mi SE 10.4 mph - N/A   Partly Cloudy
9:53 PM 53.1 °F 50.0 °F 89% 29.98 in 10.0 mi ESE 6.9 mph - 0.01 in   Clear
10:24 PM 53.6 °F 48.2 °F 82% 30.14 in 10.0 mi SE 5.8 mph - N/A Thunderstorm Clear
10:39 PM 53.6 °F 48.2 °F 82% 30.15 in 10.0 mi South 5.8 mph - N/A   Clear
10:53 PM 54.0 °F 50.0 °F 86% 29.99 in 10.0 mi SE 8.1 mph - N/A   Clear
11:53 PM 54.0 °F 50.0 °F 86% 29.97 in 10.0 mi SE 10.4 mph - N/A   Scattered Clouds